Wind from 080

Air temperature 23.3° C
Dewpoint 20.5° C

Last reported at 2014-Apr-19 00:45 UTC.
Time now 2014-Apr-19 01:59 UTC

Location: N 18°12' W 066°01'.
View on Google Maps.

See reports from other nearby stations

Tides Stations Pressure Air Temp Water Temp Dewpoint Dewpoint depression Visibility Wind Speed Wind Dir Waves Ship positions

  
sailing weather and tide predictions

CW8822 Caguas PR US weather

date/time (UTC)wind fromknots sea level pressurealtimeterstation pressurevisibilityair tempwater tempwave heightnotes
2014-Apr-19 00:45 080 23.3
2014-Apr-19 00:30 107 0 gusting 5 23.3
2014-Apr-19 00:15 079 1 gusting 5 23.3
2014-Apr-19 00:00 101 23.3
2014-Apr-18 23:45 106 0 gusting 4 23.3
2014-Apr-18 23:30 153 1 gusting 8 23.3
2014-Apr-18 23:15 085 1 gusting 7 23.9
2014-Apr-18 23:00 130 0 gusting 6 23.9
2014-Apr-18 22:45 105 0 gusting 6 23.9
2014-Apr-18 22:30 098 0 gusting 5 24.4
2014-Apr-18 22:15 093 1 gusting 6 24.4
2014-Apr-18 21:59 074 1 gusting 13 25.0
2014-Apr-18 21:44 099 1 gusting 9 25.6
2014-Apr-18 21:29 054 1 gusting 13 26.1
2014-Apr-18 21:14 098 0 gusting 10 25.6
2014-Apr-18 20:59 139 1 gusting 6 26.7
2014-Apr-18 20:44 187 4 gusting 11 26.7
2014-Apr-18 20:29 151 4 gusting 12 26.7
2014-Apr-18 20:14 080 3 gusting 8 26.7
2014-Apr-18 19:59 129 1 gusting 12 26.7
2014-Apr-18 19:44 071 4 gusting 12 27.2
2014-Apr-18 19:29 133 6 gusting 12 26.7
2014-Apr-18 19:14 080 4 gusting 12 27.2
2014-Apr-18 18:59 091 3 gusting 15 26.1
2014-Apr-18 18:44 053 2 gusting 9 26.1
2014-Apr-18 18:29 077 7 gusting 14 26.1
2014-Apr-18 18:14 076 3 gusting 11 26.7
2014-Apr-18 17:59 122 3 gusting 13 27.2
2014-Apr-18 17:44 062 3 gusting 13 27.8
2014-Apr-18 17:29 098 4 gusting 14 27.2
2014-Apr-18 17:14 052 2 gusting 13 27.2
2014-Apr-18 16:59 143 5 gusting 11 27.2
2014-Apr-18 16:44 054 1 gusting 10 26.7
2014-Apr-18 16:29 049 2 gusting 10 26.7
2014-Apr-18 16:14 118 6 gusting 19 26.7
2014-Apr-18 15:59 034 3 gusting 12 26.7
2014-Apr-18 15:44 055 4 gusting 10 26.7
2014-Apr-18 15:29 190 5 gusting 11 26.7
2014-Apr-18 15:14 200 4 gusting 16 26.1
2014-Apr-18 14:59 018 6 gusting 13 25.6
2014-Apr-18 14:44 050 5 gusting 15 25.6
2014-Apr-18 14:29 146 0 gusting 13 25.6
2014-Apr-18 14:14 130 4 gusting 14 24.4
2014-Apr-18 13:59 056 0 gusting 10 23.9
2014-Apr-18 13:44 077 1 gusting 4 22.8
2014-Apr-18 13:29 078 1 gusting 19 22.2
2014-Apr-18 13:14 169 23.9
2014-Apr-18 12:59 126 2 gusting 9 22.8
2014-Apr-18 12:44 118 1 gusting 5 21.7
2014-Apr-18 12:29 071 1 gusting 6 21.7
2014-Apr-18 12:14 071 2 gusting 11 21.7
2014-Apr-18 11:59 119 3 gusting 10 22.2
2014-Apr-18 11:44 084 22.2
2014-Apr-18 11:29 109 0 gusting 5 21.7
2014-Apr-18 11:14 161 1 gusting 4 21.7
2014-Apr-18 10:59 065 0 gusting 6 21.1
2014-Apr-18 10:44 081 1 gusting 12 20.6
2014-Apr-18 10:29 094 21.1
2014-Apr-18 10:14 043 0 gusting 8 21.1
2014-Apr-18 09:59 108 21.1
2014-Apr-18 09:44 112 1 gusting 6 21.1
2014-Apr-18 09:29 093 0 gusting 3 21.1
2014-Apr-18 09:14 074 0 gusting 6 21.1
2014-Apr-18 08:59 088 1 gusting 6 21.1
2014-Apr-18 08:44 113 0 gusting 6 21.1
2014-Apr-18 08:29 101 21.1
2014-Apr-18 07:59 130 21.1
2014-Apr-18 07:44 130 21.1
2014-Apr-18 07:29 081 0 gusting 3 21.1
2014-Apr-18 07:14 091 0 gusting 6 21.1
2014-Apr-18 06:59 098 0 gusting 6 21.1
2014-Apr-18 06:44 058 2 gusting 6 21.1
2014-Apr-18 06:29 076 1 gusting 6 21.1
2014-Apr-18 06:14 092 2 gusting 6 21.1
2014-Apr-18 05:58 128 2 gusting 8 21.1
2014-Apr-18 05:43 108 21.7
2014-Apr-18 05:28 108 0 gusting 2 21.7
2014-Apr-18 05:13 108 21.7
2014-Apr-18 04:58 108 21.7
2014-Apr-18 04:43 108 0 gusting 3 21.7
2014-Apr-18 04:28 053 1 gusting 7 21.7
2014-Apr-18 04:13 107 0 gusting 3 21.7
2014-Apr-18 03:58 092 2 gusting 7 21.7
2014-Apr-18 03:43 115 4 gusting 9 21.7
2014-Apr-18 03:28 148 0 gusting 3 21.7
2014-Apr-18 03:13 112 0 gusting 3 21.7
2014-Apr-18 02:58 090 1 gusting 6 21.7
2014-Apr-18 02:43 088 0 gusting 8 21.7
2014-Apr-18 02:28 096 0 gusting 4 22.2
2014-Apr-18 02:13 096 22.2
2014-Apr-18 01:58 081 0 gusting 4 22.2
2014-Apr-18 01:43 093 22.2
2014-Apr-18 01:28 093 22.2
2014-Apr-18 01:13 092 0 gusting 4 22.2
2014-Apr-18 00:58 116 0 gusting 6 22.8
2014-Apr-18 00:43 096 22.8
2014-Apr-18 00:28 129 0 gusting 5 22.8
2014-Apr-18 00:13 085 22.8
2014-Apr-17 23:58 104 1 gusting 6 22.8
2014-Apr-17 23:43 096 22.8
2014-Apr-17 23:28 109 23.3
2014-Apr-17 23:13 096 1 gusting 6 23.3
2014-Apr-17 22:58 080 1 gusting 6 23.3
2014-Apr-17 22:43 088 2 gusting 7 23.3
2014-Apr-17 22:28 080 1 gusting 7 23.9
2014-Apr-17 22:13 067 3 gusting 8 23.9
2014-Apr-17 21:58 105 1 gusting 5 24.4
2014-Apr-17 21:43 087 0 gusting 4 24.4
2014-Apr-17 21:28 096 24.4
2014-Apr-17 21:13 061 1 gusting 7 23.9
2014-Apr-17 20:58 096 23.3
2014-Apr-17 20:43 103 23.3
2014-Apr-17 20:28 103 22.8
2014-Apr-17 20:13 105 0 gusting 6 22.8
2014-Apr-17 19:58 057 3 gusting 7 22.8
2014-Apr-17 19:43 133 1 gusting 6 22.8
2014-Apr-17 19:28 341 23.9
2014-Apr-17 19:13 121 24.4
2014-Apr-17 18:58 084 23.3
2014-Apr-17 18:43 135 2 gusting 10 22.8
2014-Apr-17 18:28 082 2 gusting 13 23.3
2014-Apr-17 18:13 117 0 gusting 6 23.3
2014-Apr-17 17:58 153 1 gusting 7 22.8
2014-Apr-17 17:43 101 4 gusting 11 23.3
2014-Apr-17 17:28 051 23.9
2014-Apr-17 17:13 100 3 gusting 6 24.4
2014-Apr-17 16:58 119 4 gusting 13 25.6
2014-Apr-17 16:42 021 4 gusting 11 27.8
2014-Apr-17 16:12 128 1 gusting 6 26.7
2014-Apr-17 15:57 098 3 gusting 11 27.2
2014-Apr-17 15:42 174 0 gusting 9 27.2
2014-Apr-17 15:27 065 2 gusting 10 26.7
2014-Apr-17 15:12 140 6 gusting 13 26.1
2014-Apr-17 14:57 049 2 gusting 10 26.1
2014-Apr-17 14:42 134 4 gusting 12 25.6
2014-Apr-17 14:27 087 1 gusting 6 25.0
2014-Apr-17 14:12 082 0 gusting 6 25.6
2014-Apr-17 13:57 104 2 gusting 9 25.0
2014-Apr-17 13:42 074 2 gusting 6 25.0
2014-Apr-17 13:27 078 3 gusting 9 25.0
2014-Apr-17 13:12 096 0 gusting 7 25.0
2014-Apr-17 12:57 051 0 gusting 6 25.0
2014-Apr-17 12:42 055 0 gusting 4 25.0
2014-Apr-17 12:27
2014-Apr-17 12:23
2014-Apr-17 09:23 228 20.6
2014-Apr-17 09:08 228 20.6
2014-Apr-17 08:53 228 21.1
2014-Apr-17 08:38 228 21.1
2014-Apr-17 08:23 228 20.6
2014-Apr-17 08:08 228 20.6
2014-Apr-17 07:53 228 20.6
2014-Apr-17 07:38 228 0 gusting 3 21.1
2014-Apr-17 07:23 228 21.1
2014-Apr-17 07:08 215 21.7
2014-Apr-17 06:53 215 21.7
2014-Apr-17 06:38 215 3 gusting 5 21.7
2014-Apr-17 06:23 217 1 gusting 4 21.7
2014-Apr-17 06:08 217 0 gusting 5 21.7
2014-Apr-17 05:53 216 1 gusting 6 21.7
2014-Apr-17 05:38 220 1 gusting 4 21.7
2014-Apr-17 05:23 218 21.7
2014-Apr-17 05:08 218 1 gusting 3 21.7
2014-Apr-17 04:53 218 0 gusting 2 22.2
2014-Apr-17 04:38 218 22.2
2014-Apr-17 04:23 218 22.2
2014-Apr-17 04:08 218 0 gusting 2 22.2
2014-Apr-17 03:53 218 22.2
2014-Apr-17 03:38 218 22.2
2014-Apr-17 03:08 218 22.2
2014-Apr-17 02:53 218 22.2
2014-Apr-17 02:38 218 22.2
2014-Apr-17 02:23 218 22.2
2014-Apr-17 02:08 219 1 gusting 3 22.2
2014-Apr-17 01:53 219 22.2
2014-Apr-17 01:38 219 0 gusting 3 22.8
2014-Apr-17 01:23 222 4 gusting 6 22.8
2014-Apr-17 01:08 088 22.8